This demonstration page uses our WeatherBlox Daily Observations layout. Learn more.

Left ArrowRight Arrow

Hourly Observations for October 25, 2019

Temp ( °F °C ) Dew Point ( °F °C ) Humidity (%) Winds ( mph kmh ) Pressure ( in mb ) Visibility ( mi km ) Precip ( " mm )
12:53 am 00:53 Mostly Cloudy 60 15.6 48 8.9 65 65 NNE 3 6 30.22 1023 10 16 0.00 0.00
1:53 am 01:53 Cloudy 61 16.1 47 8.3 60 60 VRB 3 6 30.21 1023 10 16 0.00 0.00
2:29 am 02:29 Cloudy 61 16.1 47 8.3 60 60 NNE 7 11 30.21 1023 10 16 0.00 0.00
2:53 am 02:53 Cloudy 61 16.1 47 8.3 60 60 NE 8 13 30.21 1023 10 16 0.00 0.00
3:53 am 03:53 Cloudy 61 16.1 48 8.9 63 63 NNE 3 6 30.19 1022 10 16 0.00 0.00
4:18 am 04:18 Partly Cloudy 60 15.6 48 8.9 65 65 NNE 7 11 30.18 1022 10 16 0.00 0.00
4:51 am 04:51 Mostly Cloudy 61 16 46 8 59 59 NE 8 13 30.18 1022 10 16 0.00 0.00
4:53 am 04:53 Mostly Cloudy 61 16.1 47 8.3 60 60 NE 7 11 30.19 1022 10 16 0.00 0.00
5:53 am 05:53 Cloudy with Light Rain 61 16.1 47 8.3 60 60 ENE 8 13 30.19 1022 10 16 0.00 0.00
6:05 am 06:05 Cloudy 61 16.1 47 8.3 60 60 ENE 9 15 30.18 1022 10 16 0.00 0.00
6:48 am 06:48 Cloudy 61 16 48 9 63 63 ENE 6 9 30.18 1022 10 16 0.00 0.00
6:53 am 06:53 Cloudy 61 16.1 48 8.9 63 63 ENE 8 13 30.19 1022 10 16 0.00 0.00
7:13 am 07:13 Cloudy 61 16.1 49 9.4 65 65 ENE 7 11 30.18 1022 10 16 0.00 0.00
7:53 am 07:53 Cloudy 59 15 52 11.1 78 78 NE 7 11 30.19 1022 10 16 0.00 0.00
8:10 am 08:10 Cloudy 59 15 52 11.1 78 78 NNE 5 7 30.18 1022 10 16 0.00 0.00
8:49 am 08:49 Cloudy 61 16 52 11 72 72 NE 8 13 30.18 1022 10 16 0.00 0.00
8:53 am 08:53 Cloudy 61 16.1 52 11.1 72 72 NE 8 13 30.19 1022 10 16 0.00 0.00
9:02 am 09:02 Cloudy 61 16.1 52 11.1 72 72 NE 8 13 30.18 1022 10 16 0.00 0.00
9:18 am 09:18 Cloudy 61 16.1 51 10.6 70 70 NE 8 13 30.18 1022 10 16 0.00 0.00
9:53 am 09:53 Cloudy 63 17.2 52 11.1 68 68 NE 9 15 30.19 1023 10 16 0.00 0.00
10:29 am 10:29 Cloudy with Light Rain 62 16.7 54 12.2 75 75 ENE 8 13 30.18 1022 10 16 0.00 0.00
10:53 am 10:53 Cloudy 61 16.1 54 12.2 78 78 ENE 8 13 30.18 1022 10 16 0.00 0.00
11:30 am 11:30 Cloudy 65 18.3 55 12.8 70 70 ENE 7 11 30.18 1022 10 16 0.00 0.00
11:53 am 11:53 Cloudy 66 18.9 56 13.3 70 70 ENE 8 13 30.17 1022 10 16 0.00 0.00
12:53 pm 12:53 Cloudy 67 19.4 58 14.4 73 73 E 9 15 30.12 1020 10 16 0.00 0.00
1:53 pm 13:53 Cloudy 66 18.9 59 15 78 78 E 5 7 30.11 1020 10 16 0.00 0.00
2:53 pm 14:53 Cloudy 69 20.6 60 15.6 73 73 ESE 5 7 30.08 1019 10 16 0.00 0.00
2:57 pm 14:57 Cloudy 70 21.1 60 15.6 71 71 E 6 9 30.09 1019 10 16 0.00 0.00
3:53 pm 15:53 Cloudy 70 21.1 61 16.1 73 73 VRB 6 9 30.06 1018 10 16 0.00 0.00
4:53 pm 16:53 Cloudy 70 21.1 62 16.7 76 76 E 5 7 30.06 1018 10 16 0.00 0.00
5:53 pm 17:53 Cloudy 70 21.1 63 17.2 79 79 N 3 6 30.07 1018 10 16 0.00 0.00
6:53 pm 18:53 Cloudy 69 20.6 62 16.7 78 78 ENE 8 13 30.06 1018 10 16 0.00 0.00
7:53 pm 19:53 Cloudy 68 20 61 16.1 78 78 ENE 8 13 30.07 1018 10 16 0.00 0.00
8:53 pm 20:53 Cloudy 66 18.9 61 16.1 84 84 ENE 6 9 30.07 1018 10 16 0.00 0.00
9:11 pm 21:11 Cloudy 68 20 61 16.1 78 78 ENE 7 11 30.09 1019 10 16 0.00 0.00
9:42 pm 21:42 Cloudy with Light Rain 67 19.4 63 17.2 87 87 E 8 13 30.09 1019 9 14 0.00 0.00
9:53 pm 21:53 Cloudy with Light Rain 68 20 63 17.2 84 84 E 7 11 30.07 1018 10 16 0.01 0.25
10:01 pm 22:01 Cloudy 68 20 63 17.2 84 84 ENE 7 11 30.09 1019 10 16 0.00 0.00
10:53 pm 22:53 Cloudy with Light Rain 67 19.4 64 17.8 91 91 E 6 9 30.08 1019 10 16 0.01 0.25
11:04 pm 23:04 Cloudy with Light Rain 67 19.4 64 17.8 91 91 E 7 11 30.09 1019 9 14 0.00 0.00
11:53 pm 23:53 Cloudy 68 20 65 18.3 90 90 E 7 11 30.07 1018 10 16 0.01 0.25

Powered by AerisWeather